This demonstration page uses our WeatherBlox Daily Observations layout. Learn more.

Hourly Observations for March 26, 2016

Temp ( °F °C ) Dew Point ( °F °C ) Humidity (%) Winds ( mph kmh ) Pressure ( in mb ) Visibility ( mi km ) Precip ( " mm )
12:15 am 00:15 Clear 48 8.9 26 -3.5 42 42 Calm 29.83 1010 10 16.0934 0 0
12:35 am 00:35 Clear 46 7.9 26 -3.4 45 45 Calm 29.83 1010 10 16.0934 0 0
12:55 am 00:55 Clear 42 5.3 26 -3.1 55 55 NW 3 6 29.85 1011 10 16.0934 0 0
1:15 am 01:15 Clear 37 2.5 28 -2.3 71 71 NNW 3 6 29.88 1012 10 16.0934 0 0
1:35 am 01:35 Clear 37 2.5 29 -1.6 75 75 NNW 6 9 29.88 1012 10 16.0934 0 0
1:55 am 01:55 Clear 38 3.5 30 -0.9 73 73 N 7 11 29.85 1011 10 16.0934 0 0
2:15 am 02:15 Clear 38 3.3 31 -0.7 75 75 NNW 7 11 29.88 1012 10 16.0934 0 0
2:35 am 02:35 Clear 38 3.2 32 0 80 80 NNW 8 13 29.88 1012 10 16.0934 0 0
2:55 am 02:55 Clear 38 3.6 33 0.8 82 82 NNW 9 15 29.88 1012 10 16.0934 0 0
3:15 am 03:15 Clear 38 3.6 34 1.2 85 85 NNW 10 17 29.88 1012 10 16.0934 0 0
3:35 am 03:35 Clear 38 3.6 35 1.5 86 86 NNW 10 17 29.88 1012 10 16.0934 0 0
3:55 am 03:55 Clear 40 4.3 36 2.2 86 86 NNW 13 20 29.85 1011 10 16.0934 0 0
4:15 am 04:15 Clear 40 4.6 37 2.6 87 87 N 13 20 29.85 1011 10 16.0934 0 0
4:35 am 04:35 Partly Cloudy 42 5.3 38 3.1 86 86 N 14 22 29.85 1011 10 16.0934 0 0
4:55 am 04:55 Cloudy 41 5.2 38 3.1 86 86 N 12 19 29.85 1011 10 16.0934 0 0
5:15 am 05:15 Cloudy 42 5.7 38 3.6 87 87 N 13 20 29.85 1011 10 16.0934 0 0
5:35 am 05:35 Cloudy 42 5.4 38 3.5 88 88 NNW 18 30 29.88 1012 10 16.0934 0 0
5:55 am 05:55 Cloudy 38 3.3 35 1.4 88 88 N 20 31 29.91 1013 10 16.0934 0 0
6:15 am 06:15 Cloudy 37 2.5 34 1 90 90 NNW 20 31 29.94 1014 10 16.0934 0 0
6:35 am 06:35 Cloudy 36 2.1 33 0.7 91 91 N 18 30 29.94 1014 10 16.0934 0 0
7:15 am 07:15 Cloudy 34 1.3 32 -0.1 91 91 N 21 33 30 1016 10 16.0934 0 0
7:35 am 07:35 Cloudy 34 1.2 31 -0.4 89 89 N 17 28 30 1016 10 16.0934 0 0
7:55 am 07:55 Cloudy 34 0.9 31 -0.6 90 90 N 18 30 30 1016 10 16.0934 0 0
8:15 am 08:15 Cloudy 33 0.6 30 -1 89 89 N 18 30 30.03 1017 10 16.0934 0 0
8:35 am 08:35 Cloudy 33 0.6 30 -1 89 89 NNW 17 28 30.03 1017 10 16.0934 0 0
8:55 am 08:55 Cloudy 33 0.5 30 -1.2 89 89 N 17 28 30.06 1018 10 16.0934 0 0
9:15 am 09:15 Cloudy 33 0.5 29 -1.5 87 87 NNW 13 20 30.06 1018 10 16.0934 0 0
9:35 am 09:35 Cloudy 33 0.3 29 -1.6 87 87 NNW 17 28 30.09 1019 10 16.0934 0 0
9:55 am 09:55 Cloudy 32 0.2 28 -2 85 85 NNW 17 28 30.09 1019 10 16.0934 0 0
10:15 am 10:15 Cloudy 33 0.5 28 -2 84 84 NNW 17 28 30.09 1019 10 16.0934 0 0
10:35 am 10:35 Cloudy 33 0.8 28 -2 82 82 NNW 17 28 30.09 1019 10 16.0934 0 0
10:55 am 10:55 Cloudy 33 0.8 28 -2.5 79 79 NNW 22 35 30.09 1019 10 16.0934 0 0
11:15 am 11:15 Cloudy 35 1.6 28 -2.2 76 76 NNW 18 30 30.09 1019 10 16.0934 0 0
11:35 am 11:35 Cloudy 34 1.1 27 -2.6 77 77 NNW 16 26 30.12 1020 10 16.0934 0 0
11:55 am 11:55 Cloudy 35 1.5 26 -3.1 72 72 NNW 17 28 30.12 1020 10 16.0934 0 0
12:15 pm 12:15 Cloudy 35 1.5 26 -3.2 71 71 NNW 18 30 30.12 1020 10 16.0934 0 0
12:35 pm 12:35 Cloudy 35 1.5 26 -3.4 70 70 NNW 21 33 30.12 1020 10 16.0934 0 0
12:55 pm 12:55 Cloudy 35 1.7 26 -3.6 68 68 NNW 18 30 30.12 1020 10 16.0934 0 0
1:15 pm 13:15 Cloudy 35 1.5 26 -3.6 69 69 NNW 17 28 30.12 1020 10 16.0934 0 0
1:35 pm 13:35 Cloudy 35 1.4 26 -3.3 71 71 NNW 22 35 30.12 1020 10 16.0934 0 0
1:55 pm 13:55 Cloudy 34 1.3 26 -3.3 72 72 NNW 23 37 30.12 1020 10 16.0934 0 0
2:15 pm 14:15 Cloudy 34 1 26 -3.2 74 74 NNW 17 28 30.12 1020 10 16.0934 0 0
2:35 pm 14:35 Cloudy 34 0.9 26 -3.5 73 73 NNW 20 31 30.12 1020 10 16.0934 0 0
2:55 pm 14:55 Cloudy 34 1 26 -3.4 73 73 N 20 31 30.12 1020 10 16.0934 0 0
3:15 pm 15:15 Cloudy 33 0.8 26 -3.6 73 73 N 21 33 30.12 1020 10 16.0934 0 0
3:35 pm 15:35 Cloudy 33 0.8 25 -3.7 72 72 N 16 26 30.12 1020 10 16.0934 0 0
3:55 pm 15:55 Cloudy 33 0.8 25 -3.7 72 72 NNW 22 35 30.12 1020 10 16.0934 0 0
4:15 pm 16:15 Cloudy 32 0.2 25 -3.8 75 75 NNW 17 28 30.12 1020 10 16.0934 0 0
4:35 pm 16:35 Cloudy 32 0.2 25 -4 74 74 N 23 37 30.12 1020 10 16.0934 0 0
4:55 pm 16:55 Cloudy 32 0.1 24 -4.2 73 73 NNW 20 31 30.18 1022 10 16.0934 0 0
5:15 pm 17:15 Cloudy 32 0.1 24 -4.2 73 73 NNW 18 30 30.18 1022 10 16.0934 0 0
5:35 pm 17:35 Cloudy 32 0 24 -4.4 73 73 NNW 18 30 30.18 1022 10 16.0934 0 0
5:55 pm 17:55 Cloudy 32 0 24 -4.5 72 72 NNW 17 28 30.21 1023 10 16.0934 0 0
6:15 pm 18:15 Cloudy 32 0.1 24 -4.7 70 70 NNW 14 22 30.21 1023 10 16.0934 0 0
6:35 pm 18:35 Cloudy 32 0 23 -5 69 69 NNW 16 26 30.24 1024 10 16.0934 0 0
6:55 pm 18:55 Cloudy 32 0 23 -5 69 69 NNW 14 22 30.24 1024 10 16.0934 0 0
7:15 pm 19:15 Cloudy 32 0 23 -5 69 69 N 13 20 30.24 1024 10 16.0934 0 0
7:35 pm 19:35 Cloudy 32 -0.1 23 -5 70 70 NNW 15 24 30.24 1024 10 16.0934 0 0
7:55 pm 19:55 Cloudy 32 -0.1 23 -5.1 69 69 NNW 12 19 30.24 1024 10 16.0934 0 0
8:15 pm 20:15 Cloudy 32 0 22 -5.4 67 67 NNW 12 19 30.24 1024 10 16.0934 0 0
8:35 pm 20:35 Cloudy 32 -0.1 22 -5.5 67 67 NNW 9 15 30.24 1024 10 16.0934 0 0
8:55 pm 20:55 Cloudy 32 -0.2 22 -5.6 67 67 NNW 8 13 30.24 1024 10 16.0934 0 0
9:15 pm 21:15 Cloudy 31 -0.3 22 -5.8 67 67 NNW 9 15 30.24 1024 10 16.0934 0 0
9:35 pm 21:35 Cloudy 31 -0.3 22 -5.8 67 67 NNW 9 15 30.24 1024 10 16.0934 0 0
9:55 pm 21:55 Cloudy 31 -0.5 22 -5.8 68 68 NNW 10 17 30.24 1024 10 16.0934 0 0
10:15 pm 22:15 Mostly Cloudy 31 -0.6 20 -6.5 65 65 NNW 8 13 30.24 1024 10 16.0934 0 0
10:35 pm 22:35 Partly Cloudy 30 -1.3 20 -6.8 67 67 NW 7 11 30.24 1024 10 16.0934 0 0
10:55 pm 22:55 Clear 28 -2.1 19 -7.1 69 69 NW 5 7 30.24 1024 10 16.0934 0 0
11:15 pm 23:15 Clear 27 -3 19 -7.3 73 73 NW 5 7 30.27 1025 10 16.0934 0 0
11:35 pm 23:35 Clear 26 -3.2 19 -7.5 72 72 NW 5 7 30.27 1025 10 16.0934 0 0
11:55 pm 23:55 Clear 26 -3.6 18 -7.6 74 74 NW 3 6 30.27 1025 10 16.0934 0 0

Powered by AerisWeather